Main page
METAR-TAF:

METAR-TAF

Airports :

Sari, Iran

Dasht-e Naz Airport

latitude: 36-38-09N, longitude: 53-11-37E, elevation: 11 m

Current weather observation

The report was made 21 minutes ago, at 16:00 UTC
Wind 2 kt from variable directions
Temperature 6°C
Humidity 93%
Pressure 1022 hPa
Visibility 10 km or more
no clouds below 1500 m and no cumulonimbus

METAR: OINZ 181600Z VRB02KT CAVOK 06/05 Q1022

Time: 19:51 (16:21 UTC)


TAF: missing

Weather observations and forecasts of more than 4000 airports (METAR and TAF reports).

The available stations are represented by yellow and red dots on the map.

Hover mouse over dot to see the name of the station.

Then click to see weather observations and forecasts.

To change the map : click on the green buttons with a black cross to zoom in, on the green button with a dash to zoom out, or on the green arrows for adjacent maps.


METAR-TAF: